Regional Weather Roundup
Issued by NWS Charleston, SC

Home | Current Version | Previous Version | Text Only | Print | Product List | Glossary On
Versions: 1 2 3 4 5 6 7 8 9 10 11 12 13 14 15 16 17 18 19 20 21 22 23 24 25 26 27 28 29 30 31 32 33 34 35 36 37 38 39 40 41 42 43 44 45 46 47 48 49 50
000
ASUS42 KCHS 301712
RWRCHS

REGIONAL WEATHER ROUNDUP
NATIONAL WEATHER SERVICE CHARLESTON SC
100 PM EDT THU MAR 30 2017

NOTE: "FAIR" INDICATES FEW OR NO CLOUDS BELOW 12,000 FEET WITH NO
SIGNIFICANT WEATHER AND/OR OBSTRUCTIONS TO VISIBILITY.

NOT ALL STATIONS ARE QUALITY CONTROLLED. USE DATA WITH CAUTION...
ESPECIALLY DEWPOINT OBSERVATIONS.

SCZ027-030-031-034>040-042>050-301800-
...SOUTHEAST SOUTH CAROLINA...

CITY           SKY/WX    TMP DP  RH WIND       PRES   REMARKS
N CHARLESTON   CLOUDY    69  65  86 E14       30.05F
WATERFRONT PRK   N/A     67  65  93 E10       30.05S
JOHNS ISLAND   PTSUNNY   70  68  94 E10       30.05F
PINOPOLIS        N/A     75  64  69 SE7       29.98F
MONCKS CORNER  CLOUDY    73  61  64 SE13G18   30.05F
SUMMERVILLE    CLOUDY    73  63  68 E9        30.05F
BEAUFORT MCAS  MOSUNNY   79  69  71 SE8       30.01F
BEAUFORT ARPT  PTSUNNY   79  68  69 SE9       30.01F
HILTON HEAD IS MOSUNNY   73  68  83 E6        30.03F
WALTERBORO     PTSUNNY   79  64  61 E15       30.02F
ALLENDALE      PTSUNNY   81  63  54 S10       29.98F

...SOUTHERN MIDLANDS AND PEE DEE...

CITY           SKY/WX    TMP DP  RH WIND       PRES   REMARKS
GEORGETOWN     CLOUDY    72  59  64 E14G20    30.09F
KINGSTREE      CLOUDY    73  57  56 E13       30.05F
ORANGEBURG     MOSUNNY   80  62  54 S13G21    30.00F
BARNWELL       PTSUNNY   79  64  61 S8        29.99F
AIKEN          PTSUNNY   72  61  68 SE5       30.04F
MANNING        CLOUDY    73  61  64 SE8       30.03F
COLUMBIA       PTSUNNY   79  62  56 SE10      30.00F
SUMTER         PTSUNNY   77  62  58 E12       30.01F
FLORENCE       PTSUNNY   74  58  57 SE12      30.06F
MYRTLE BEACH   MOSUNNY   70  57  64 E20       30.11F
N MYRTLE BEACH MOSUNNY   72  57  59 E13G24    30.10F

$$

GAZ063-065-086>088-099>101-113>116-118-119-134>141-150-301800-
...SOUTHEAST GEORGIA...

CITY           SKY/WX    TMP DP  RH WIND       PRES   REMARKS
SAVANNAH ARPT  PTSUNNY   82  61  48 SW14      30.01F
HUNTER AAF     MOSUNNY   79  66  64 SE5       29.98F
FORT STEWART   LGT RAIN  69  65  87 NE12      29.98F
STATESBORO     RAIN      69  69 100 S6        30.02F
SYLVANIA       CLOUDY   N/A N/A N/A SW6       30.02F
CLAXTON        CLOUDY   N/A N/A N/A NE3       30.01F

...CSRA...CENTRAL AND FAR SOUTHEAST GEORGIA...

CITY           SKY/WX    TMP DP  RH WIND       PRES   REMARKS
THOMSON        CLOUDY    75  61  62 SW10G16   30.04F
AUGUSTA-BUSH   CLOUDY    76  65  68 S14       29.98F
AUGUSTA-DANIEL PTSUNNY   75  64  68 S9        30.00F
SWAINSBORO     PTSUNNY   75  61  60 SE10      30.01F
VIDALIA        CLOUDY    79  63  57 SE8       30.00F
EASTMAN        PTSUNNY   84  32  15 SW8       30.00F
HAZLEHURST     FAIR      82  62  50 S6        29.98F
ALMA           PTSUNNY   81  59  47 SE5       29.98F
WAYCROSS       MOSUNNY   87  62  42 SW6       29.98F
JESUP          CLOUDY    81  63  54 SE6       30.00F
BAXLEY         FAIR      81  64  57 CALM      29.99F
BRUNSWICK      MOSUNNY   81  68  65 SE6       30.00F
SAINT SIMONS   PTSUNNY   75  65  70 SE9       30.00F

$$

SCZ027-028-034-036>038-045-046-048>050-GAZ119-141-301800-
...LAKE AND SUPPLEMENTAL COASTAL OBSERVATIONS...

STATION/POSITION TIME  TEMP    WIND        PRES    WAVE   SWELL
                       AIR SEA DIR/SP/G            HT/PER HT/PER/DIR
                 (UTC) (F)     (DEG/KT/KT) (MB)    (FT/S) (FT/S/D)
WINYAH BAY       1545   63      60/ 12     1019.0
LAKE MURRAY      1620   70      90/  7/ 10 1016.3F
ACE BASIN NERRS  1545   76     100/  5     1017.0
FORT PULASKI     1648   74 67  140/  4/  7 1016.6F
SAPELO ISLAND    1600   79     130/  6     1017.0

$$

ANZ835-935-AMZ111-154-330-350-352-354-370-450-454-472-301800-
...C-MAN AND BUOY OBSERVATIONS...

STATION/POSITION TIME  TEMP    WIND        PRES    WAVE   SWELL
                       AIR SEA DIR/SP/G            HT/PER HT/PER/DIR
                 (UTC) (F)     (DEG/KT/KT) (MB)    (FT/S) (FT/S/D)
BUOY 41004       1550   70 70  110/ 14/ 17 1017.3    5/10   3/100/10
BUOY 41008       1550   67 66  100/  4/  6 1016.5    3/ 9   3/120/ 9
FOLLY BEACH CMAN 1600   66      90/  7/  7 1018.9R
CAPERS NEARSHORE NOT AVBL
FRIPP NEARSHORE  1608   66 64   70/  6/  8 1017.0R


STATION/POSITION TIME  TEMP    WIND        PRES    WAVE   SWELL
                       AIR SEA DIR/SP/G            HT/PER HT/PER/DIR
                 (UTC) (F)     (DEG/KT/KT) (MB)    (FT/S) (FT/S/D)
5E ST. MARYS GA  1630      69                N/A     2/11   2/110/11
FRYING PAN BUOY  1650   70 74  100/ 16/ 21 1019.1F   4/10   3/110/10
BUOY 41025       1650   63 78   30/ 17/ 21 1020.8F   6/ 9   3/ 50/ 9
CAPE LOOKOUT NC  1600   60      40/ 18/ 20 1021.0F
BUOY 41002       1550   68 72   60/ 12/ 16 1019.8    6/10   5/ 80/10
BUOY 41010       NOT AVBL
ST AUGUSTINE FL  1700   71 67  110/  8/  9 1016.7F


$$



USA.gov is the U.S. government's official web portal to all federal, state and local government web resources and services.